EXPRESS 103

Last updated on Wed Aug 12 2026 00:03:04 GMT+0000 (Coordinated Universal Time)

1 45985U 20053A 26223.00893036 .00000000 00000+0 00000+0 0 9993 2 45985 0.0057 286.5503 0000313 336.7649 155.8766 1.00272074 22194
UTC large
Height (km)
Speed (km/s)
/
Latitude / Longitude
Inclination (degrees)
Orbital Period (minutes)
Azimuth
Elevation
Range (km)
Doppler Factor

Next 0 passes for location: London (51.5072 / 0.1276)

No passes found over London.
EXPRESS 103